Regional Weather Roundup
Issued by NWS

Home | Current Version | Previous Version | Text Only | Print | Product List | Glossary Off
Versions: 1 2 3 4 5 6 7 8 9 10 11 12 13 14 15 16 17 18 19 20 21 22 23 24 25 26 27 28 29 30 31 32 33 34 35 36 37 38 39 40 41 42 43 44 45 46 47 48 49 50

000
ASUS43 KIND 282059
RWRIN

WEATHER ROUNDUP FOR INDIANA
NATIONAL WEATHER SERVICE INDIANAPOLIS IN
400 PM EST SUN DEC 28 2014

NOTE: "FAIR" INDICATES FEW OR NO CLOUDS BELOW 12,000 FEET WITH NO
SIGNIFICANT WEATHER AND/OR OBSTRUCTIONS TO VISIBILITY.

* - STATION DOES NOT REPORT WEATHER SUCH AS PRECIPITATION OR FOG.

+ - STATION NOT QUALITY CONTROLLED BY THE NATIONAL WEATHER SERVICE.
    USE DATA WITH CAUTION...ESPECIALLY DEWPOINT AND RELATIVE
    HUMIDITY OBSERVATIONS.

INZ001>003-010>013-019-020-282200-
NORTHWEST INDIANA

CITY           SKY/WX    TMP DP  RH WIND       PRES   REMARKS
GARY /AIRPORT/ MOSUNNY   34  10  37 SW7       30.17R WCI  28
VALPARAISO     NOT AVBL

$$

LMZ046-743>745-282200-
SOUTHERN LAKE MICHIGAN

STATION/POSITION TIME  TEMP WIND        PRES
                       AIR  DIR/SP/G
                 (UTC) (F)  (DEG/KT/KT) (MB)
MICHIGAN CITY    2000   31  240/ 12/ 13   N/A

$$

INZ004-005-014>016-021>024-282200-
NORTH CENTRAL INDIANA

CITY           SKY/WX    TMP DP  RH WIND       PRES   REMARKS
ELKHART        SUNNY     36  16  44 W7        30.15R
GOSHEN         PTSUNNY   34  25  69 W8        30.14R WCI  27
SOUTH BEND     PTSUNNY   35  22  58 NW9       30.16R WCI  28

$$

INZ006>009-017-018-025>027-282200-
NORTHEAST INDIANA

CITY           SKY/WX    TMP DP  RH WIND       PRES   REMARKS
ANGOLA *+      MOSUNNY   34  21  60 W8        30.12R WCI  27
FORT WAYNE     CLOUDY    34  27  75 W7        30.16R WCI  28

$$

INZ028-029-035-036-043>045-051>053-282200-
WEST CENTRAL INDIANA

CITY           SKY/WX    TMP DP  RH WIND       PRES   REMARKS
GREENCASTLE +  CLOUDY    30  21  69 NW3       30.19R
LAFAYETTE      CLOUDY    29  23  78 W3        30.20R
TERRE HAUTE    PTSUNNY   31  22  69 NW7       30.20R WCI  24

$$

INZ030>032-037>040-046>048-054>057-064-065-282200-
CENTRAL INDIANA

CITY           SKY/WX    TMP DP  RH WIND       PRES   REMARKS
COLUMBUS       CLOUDY    32  27  80 N6        30.18R WCI  26
INDIANAPOLIS   CLOUDY    29  24  82 W6        30.17R WCI  23
-EAGLE CREEK   CLOUDY    30  24  78 NW7       30.17R WCI  23
KOKOMO *+      CLOUDY    30  23  74 W7        30.18R WCI  23
MT COMFORT *+  CLOUDY    32  23  69 N6        30.17R WCI  26
SHELBYVILLE    CLOUDY    34  27  75 NW6       30.16R WCI  29

$$

INZ033-034-041-042-049-050-058-059-282200-
EAST CENTRAL INDIANA

CITY           SKY/WX    TMP DP  RH WIND       PRES   REMARKS
MUNCIE         CLOUDY    32  26  78 NW7       30.16R WCI  26

$$

INZ060-061-067>069-081>083-085>088-282200-
SOUTHWEST INDIANA

CITY           SKY/WX    TMP DP  RH WIND       PRES   REMARKS
EVANSVILLE     CLOUDY    36  28  73 N7        30.21R
HUNTINGBURG *+ CLOUDY    34  28  80 N7        30.20R WCI  28

$$

INZ062-063-066-070>080-084-089>092-282200-
SOUTH CENTRAL AND SOUTHEAST INDIANA

CITY           SKY/WX    TMP DP  RH WIND       PRES   REMARKS
BLOOMINGTON    CLOUDY    33  27  78 VRB3      30.17R

$$



USA.gov is the U.S. government's official web portal to all federal, state and local government web resources and services.